www.pogodaiklimat.ru

Погода и климат >> Архив погоды >> Россия >> Забайкальский край >> Забайкальск


ПОГОДА в Забайкальске

  • Прогноз погоды в Забайкальске
  • Монитор погоды в Забайкальске

АРХИВ ПОГОДЫ в Забайкальске

Время (UTC), дата Ветер
(напр.,м/с)
 
Видим.   Явления Облачность Т
(С)
Тd
(С)
f
(%)
Тe
(С)
Тes
(С)
Комфортность P
(гПа)
Po
(гПа)
Тmin
(С)
Tmax
(С)
R
(мм)
R24
(мм)
S
(см)
18 17.06 СЗ 2 20 км ясно +14.3 +2.2 44 +14 +14 1008.3 929.3
21 17.06 СЗ 2 50 км 3/0
[Ci sp]
+15.9 +4.3 46 +16 +16 1009.4 930.7
00 18.06 В 1 50 км 8/1 600 м
[Cb calv Ci sp]
+22.4 +9.1 43 +24 +30 комфорт 1006.3 929.6 +12.6
03 18.06 СЗ 3 50 км 5/3 600 м
[Cb cap Ci sp]
+29.1 +7.6 26 +28 +35 жарко 1004.2 929.3
06 18.06 В 6
{12}
50 км 8/6 600 м
[Cb cap Ci sp]
+28.1 +10.3 33 +29 +30 жарко 1003.0 928.0
09 18.06 СВ 2
{10}
50 км 4/3 600 м
[Cb cap Ci sp]
+28.1 +8.4 29 +28 +31 жарко 1003.1 928.0
12 18.06 СЗ 2 50 км 3/1 600 м
[Cb calv Ci fib]
+24.5 +9.5 39 +25 +25 комфорт 1002.6 926.7 +30.6
15 18.06 штиль 0 20 км 1/0
[Ci sp]
+17.9 +9.5 58 +18 +18 1005.8 928.0
18 18.06 С 2 20 км 5 баллов +15.1 +8.6 65 +15 +15 1006.6 928.0
21 18.06 СЗ 4 50 км 3/0
[Ci sp]
+19.7 +9.0 50 +21 +21 комфорт 1005.3 928.0
00 19.06 С 7 50 км 3/0
[Ci fib]
+27.3 +9.9 34 +28 +30 жарко 1001.4 926.3 +14.1
03 19.06 С 5
{10}
50 км 4/3 600 м
[Cb calv Ci sp]
+30.7 +10.6 29 +31 +36 жарко 1000.9 926.7
06 19.06 С 4
{13}
50 км 8/6 600 м
[Cb cap Ci sp]
+30.5 +9.9 28 +30 +33 жарко 999.5 925.3
09 19.06 СЗ 9-13
{13}
50 км {ливн. осадки} 9/8 600 м
[Cb cap Ci sp]
+28.8 +11.4 34 +29 +30 жарко 999.9 925.3
12 19.06 СЗ 5
{13}
50 км 9/8 600 м
[Cb cap Ci sp]
+25.0 +14.1 51 +27 +27 жарко 1000.3 924.8 +32.2 0.0
15 19.06 В 5
{14}
20 км 10/10 600 м
[Cb cap]
+21.7 +11.7 53 +24 +24 комфорт 1004.7 928.0
18 19.06 З 2 20 км 10/10 600 м
[Cb cap]
+17.8 +11.1 65 +18 +18 1005.7 928.0
21 19.06 С 3 50 км 8/6 600 м
[Cb cap Ci sp]
+15.8 +10.1 69 +15 +15 1007.7 929.3
00 20.06 СЗ 3 50 км 8/8 1000 м
[Sc]
+22.1 +11.5 51 +24 +25 комфорт 1005.5 928.9 +15.3
03 20.06 С 3 50 км 3/1 1000 м
[Cu hum Ci sp]
+27.9 +10.1 33 +28 +39 жарко 1004.5 929.3
06 20.06 В 4 50 км 8/8 600 м
[Cb cap]
+28.8 +11.4 34 +29 +33 жарко 1004.2 929.3
09 20.06 З 8-10
{11}
50 км гроза без осадков {ливн. осадки} 9/9 600 м
[Cb cap]
+20.3 +13.3 64 +22 +22 комфорт 1007.9 930.7
12 20.06 С 4
{12}
50 км {гроза} 4/4 600 м
[Cb cap]
+19.5 +11.0 58 +21 +21 комфорт 1007.9 930.4 +29.4 0.6
15 20.06 С 5 20 км 3/0
[Ci sp]
+17.2 +8.6 57 +17 +17 1010.3 932.0
18 20.06 В 2 20 км 4/0
[Ci sp]
+18.9 +6.0 43 +20 +20 1011.3 933.3
21 20.06 СЗ 3 50 км 3/0
[Ci sp]
+15.4 +6.4 55 +15 +15 1013.8 934.7
00 21.06 С 2 50 км ясно +25.2 +8.0 33 +25 +33 комфорт 1010.0 933.7 +12.2
03 21.06 СВ 4 50 км 1/0
[Ci fib]
+28.9 +5.7 23 +28 +38 жарко 1010.2 934.7
06 21.06 СЗ 1 50 км 6/6 600 м
[Cb calv]
+30.5 +5.0 20 +29 +36 жарко 1008.3 933.3
09 21.06 СЗ 4 50 км 8/5 600 м
[Cb calv Ci sp]
+31.2 +5.6 20 +29 +30 жарко 1006.7 932.0
12 21.06 СЗ 3 50 км 8/0
[Ci sp]
+26.6 +6.4 28 +26 +26 жарко 1007.3 931.5 +31.9
15 21.06 СЗ 2 20 км 4/0
[Ci sp]
+19.3 +6.7 44 +20 +20 1011.2 933.3
18 21.06 СЗ 2 20 км 3/0
[Ci sp]
+17.0 +6.8 51 +17 +17 1011.8 933.3
21 21.06 С 3 50 км 3/0
[Ci sp]
+16.2 +7.1 55 +16 +16 1012.0 933.3
00 22.06 ЮВ 1 50 км ясно +26.8 +8.6 32 +27 +36 жарко 1008.6 932.8 +15.3
03 22.06 Ю 3 50 км 6/3 1000 м
[Cu hum Ci sp]
+30.5 +10.4 29 +30 +36 жарко 1008.1 933.3
06 22.06 Ю 3 50 км 6/4 600 м
[Cb calv Ci sp]
+33.9 +9.8 23 +33 +38 жарко 1004.5 930.7
09 22.06 Ю 5 50 км 5 баллов +32.3 +10.3 26 +32 +33 жарко 1003.4 929.3
12 22.06 Ю 3
{10}
50 км 8/1 600 м
[Cb calv Ci sp]
+28.3 +10.4 33 +29 +29 жарко 1003.7 928.6 +34.0
15 22.06 С 1 20 км 2 балла +20.9 +10.1 50 +24 +24 комфорт 1006.3 929.3
18 22.06 В 1 20 км 6 баллов +22.8 +8.5 40 +24 +24 комфорт 1004.5 928.0
21 22.06 З 1 50 км 9 баллов +19.5 +7.9 47 +21 +21 комфорт 1005.4 928.0
00 23.06 СЗ 5 50 км 8/4 1000 м
[Sc Ci sp]
+27.9 +11.3 36 +29 +31 жарко 1002.2 927.2 +19.4
03 23.06 СЗ 5 50 км 7 баллов +32.2 +10.8 27 +32 +35 жарко 1002.0 928.0
06 23.06 СЗ 3 50 км 6 баллов +33.3 +8.7 22 +32 +37 жарко 1000.3 926.7
09 23.06 ЮЗ 4 50 км 7 баллов +34.3 +8.8 21 +33 +34 жарко 998.6 925.3
12 23.06 ЮЗ 2 50 км 8/5 600 м
[Cb cap Ci sp]
+29.1 +10.2 31 +29 +29 жарко 997.8 923.4 +35.4
15 23.06 СЗ 12-16
{20}
20 км зарница 9/9 600 м
[Cb cap]
+23.1 +20.2 84 +30 +30 очень
душно
985.0 925.5
18 23.06 ЮВ 3 20 км зарница 10 баллов +20.5 +13.5 64 +23 +23 комфорт 1002.0 925.3
21 23.06 С 1 50 км 9 баллов +17.2 +13.1 77 +18 +18 1004.4 926.7
00 24.06 Ю 1 50 км 9/9 1000 м
[Sc]
+23.6 +14.4 56 +26 +27 жарко 1001.8 925.9 +17.1
03 24.06 СЗ 5 50 км 7 баллов +27.2 +14.6 46 +30 +32 душно 1001.7 926.7 +17.1
06 24.06 СЗ 4 50 км 6 баллов +30.0 +12.4 34 +31 +35 жарко 999.6 925.3
09 24.06 СЗ 6 50 км 7 баллов +29.8 +11.3 32 +30 +31 жарко 999.6 925.3
12 24.06 СЗ 5
{11}
50 км 8/5 600 м
[Cb cap Ci sp]
+25.6 +12.8 45 +27 +27 жарко 1001.8 926.4 +30.9
15 24.06 С 2 20 км 2 балла +21.5 +13.7 61 +24 +24 комфорт 1004.7 928.0

 

Местоположение метеостанции Забайкальск (Забайкальский край, Россия): широта 49.63 долгота 117.30 высота над уровнем моря 694 м.

В архиве по умолчанию представлена погода в Забайкальске за последнюю неделю. Архивные данные за месяц целиком и за предыдущие месяцы, начиная с января 2011 года, Вы можете получить, выбрав интересующий диапазон дат из раскрывающегося списка и нажав кнопку "Ввод!".


*Определитесь, кто Вы:
робот инопланетянин человек

Внимание! Время в таблицах - всемирное. Для получения местного времени необходимо прибавить поправку, которая равна 9 ч.

Смотрите также архив погоды в соседних городах и на ближайших метеорологических станциях:

Погода в Кайластуе (Забайкальский край, Россия) (75 км)
Погода в Борзе (Забайкальский край, Россия) (103 км)
Погода в Шинэ-Барга-Юци (Внутренняя Монголия, Китай) (113 км)
Погода в Соловьевске (Забайкальский край, Россия) (119 км)
Погода в Приаргунске (Забайкальский край, Россия) (149 км)
Погода в Александровском Заводе (Забайкальский край, Россия) (150 км)
Погода в Бырке (Забайкальский край, Россия) (154 км)
Погода в Хайларе (Внутренняя Монголия, Китай) (183 км)
Погода в Нижнем Цасучее (Забайкальский край, Россия) (184 км)
Погода в Оловянной (Забайкальский край, Россия) (195 км)

Пояснения к столбцам:

Ветер - указаны скорость ветра в м/с - средняя за 10 мин, порывы в срок и между сроками (в фигурных скобках) и направление, откуда дует ветер: С - северный, СВ - северо-восточный, В - восточный, ЮВ - юго-восточный, Ю - южный, ЮЗ - юго-западный, З - западный, СЗ - северо-западный.
Видимость - горизонтальная дальность видимости в метрах или километрах. При видимости от 1 до 10 км при отсутствии осадков обычно наблюдается дымка, при ухудшении видимости до 1 км и менее - туман. В сухую погоду видимость может ухудшаться дымом, пылью или мглою.
Явления - указаны атмосферные явления, наблюдавшиеся в срок или в последний час перед сроком; фигурными скобками обозначены явления, наблюдавшиеся между сроками (за 1-3 часа до срока); квадратными скобками обозначены град или гололедные отложения с указанием их диаметра в мм.
Облачность - указаны через наклонную черту общая и нижняя облачность в баллах и высота нижней границы облаков в метрах; квадратными скобками обозначены формы облаков: Ci - перистые, Cs - перисто-слоистые, Cc - перисто-кучевые, Ac - высококучевые, As - высокослоистые, Sc - слоисто-кучевые, Ns - слоисто-дождевые, Cu - кучевые, Cb - кучево-дождевые. Подробнее классификацию облаков см. в Атласе облаков (PDF).
T - Температура воздуха - температура, измеренная на высоте 2 м над землей.
Td - Температура точки росы - температура, при понижении до которой содержащийся в воздухе водяной пар достигнет насыщения.
f - Относительная влажность воздуха - влажноcть воздуха, измеренная на высоте 2 м над землей.
Te - Эффективная температура - температура, которую ощущает одетый по сезону человек в тени. Характеристика душности погоды. При расчете учитывается влияние влажности воздуха и скорости ветра на теплоощущения человека.
Tes - Эффективная температура на солнце - температура, которую ощущает человек, с поправкой на солнечный нагрев. Характеристика знойности погоды. Зависит от высоты солнца над горизонтом, облачности и скорости ветра. Ночью, в пасмурную погоду, а также при ветре 12 м/с и более поправка равна нулю.
P - Атмосферное давление - приведенное к уровню моря атмосферное давление.
Po - Атмосферное давление - измеренное на уровне метеостанции атмосферное давление.
Tmin - Минимальная температура - минимум температуры воздуха на высоте 2 м над землей.
Tmax - Максимальная температура - максимум температуры воздуха на высоте 2 м над землей.
R - Количество осадков - Количество выпавших осадков за период времени, мм. При наведении курсора мыши на число - период времени, за который выпало указанное количество осадков.
R24 - Количество осадков - Количество выпавших осадков за 24 часа, мм.
S - Снежный покров - Высота снежного покрова, см. При наведении курсора мыши на число - состояние снежного покрова и степень покрытия местности в баллах.